Regional Weather Roundup
Issued by NWS Binghamton, NY

Home | Current Version | Previous Version | Text Only | Print | Product List | Glossary On
Versions: 1 2 3 4 5 6 7 8 9 10 11 12 13 14 15 16 17 18 19 20 21 22 23 24 25 26 27
000
ASUS41 KBGM 281810
RWRBGM

REGIONAL WEATHER ROUNDUP
NATIONAL WEATHER SERVICE BINGHAMTON NY
200 PM EDT THU JUL 28 2016

Note: "fair" indicates few or no clouds below 12,000 feet with no
significant weather and/or obstructions to visibility.

* = Station(s) that does not report precipitation, such as rain,
snow, etc, also no thunder or fog.

NYZ009-015>018-022>025-036-037-044>046-055>057-062-281900
...Central New York...

CITY           SKY/WX    TMP DP  RH WIND       PRES   REMARKS
Binghamton     PTSUNNY   83  61  47 NW3       29.94F
Dansville      CLOUDY    84  65  52 N3        29.91F HX  86
Elmira         CLOUDY    86  60  41 S6        29.89F HX  86
Ithaca         CLOUDY    84  61  45 VRB5      29.93F
Hamilton       MOSUNNY   84  64  51 CALM      29.92F HX  86
Hornell        SUNNY     82  64  54 NW6       29.96F
Monticello     PTSUNNY   86  63  45 CALM      29.95F HX  87
Norwich        SUNNY     82  63  51 CALM      29.92F
Oneonta        SUNNY     81  59  47 CALM      29.95F
Penn Yan       CLOUDY    83  65  54 N5        29.92F HX  85
Rome           CLOUDY    83  66  56 SW8       29.90F HX  85
Sidney         SUNNY     84  66  54 CALM      29.91F HX  86
Syracuse       CLOUDY    85  66  53 W8        29.88F HX  87
$$

PAZ038>040-043-044-047-048-072-281900
...Northeast Pennsylvania...

CITY           SKY/WX    TMP DP  RH WIND       PRES   REMARKS
Hazleton       CLOUDY    82  68  61 SE6       29.96F HX  85
Scranton       PTSUNNY   88  65  46 SW6       29.88F HX  90
$$
&&
KEY
WCI = Wind Chill Index
VSB = Visibility
HX  = Heat Index
$$




USA.gov is the U.S. government's official web portal to all federal, state and local government web resources and services.